Location: Bergnerzell
(49.1816°N, 10.2565°E)
Time: 03:26:07
(UTC+00:00)

USA 234 - Pass Details

Date: 23 May 2024
Orbit: 1100 x 1107 km, 123.0° (Epoch: 12 June)

Event Time Altitude Azimuth Distance (km) Brightness Sun altitude
Exits shadow 00:56:33 16° 168° (SSE) 2,503 4.7 -16.7°
Maximum altitude 01:01:09 38° 228° (SW) 1,630 3.7 -16.3°
Drops below altitude 10° 01:07:09 10° 295° (WNW) 2,964 5.5 -15.9°
Sets 01:09:52 0° 303° (WNW) 3,924 6.2 -15.7°
